• In Hungary
  • List of Countries
  • For 7 days
  • Water Temperature
  • Satellite Maps
  • Weather Map
  • News
  • Weather Widgets
  • user-avatar
    Login

    Hourly Weather Glotovo

    Today, 19 October, Friday

    Time Temperature Precipitation Wind Pressure Humidity
    00:00 +13°C° 0 mm 2 mps 747 mmHg 85%
    01:00 +13°C° 0 mm 2 mps 747 mmHg 86%
    02:00 +12°C° 0 mm 2 mps 747 mmHg 86%
    03:00 +12°C° 0 mm 2 mps 746 mmHg 87%
    04:00 +12°C° 0 mm 2 mps 746 mmHg 88%
    05:00 +10°C° 0 mm 2 mps 746 mmHg 89%
    06:00 +12°C° 0 mm 2 mps 746 mmHg 86%
    07:00 +12°C° 0 mm 2 mps 746 mmHg 84%
    08:00 +13°C° 0 mm 2 mps 746 mmHg 81%
    09:00 +15°C° 0 mm 2 mps 746 mmHg 75%
    10:00 +16°C° 0 mm 2 mps 745 mmHg 69%
    11:00 +18°C° 0 mm 2 mps 745 mmHg 63%
    12:00 +18°C° 0 mm 2 mps 745 mmHg 61%
    13:00 +19°C° 0 mm 3 mps 745 mmHg 60%
    14:00 +19°C° 0 mm 3 mps 744 mmHg 58%
    15:00 +18°C° 0 mm 2 mps 744 mmHg 64%
    16:00 +16°C° 0 mm 2 mps 744 mmHg 70%
    17:00 +15°C° 0 mm 2 mps 744 mmHg 76%
    18:00 +14°C° 0 mm 2 mps 744 mmHg 79%
    19:00 +14°C° 0 mm 2 mps 744 mmHg 82%
    20:00 +13°C° 0 mm 2 mps 744 mmHg 86%
    21:00 +12°C° 0 mm 2 mps 744 mmHg 88%
    22:00 +12°C° 0 mm 2 mps 744 mmHg 91%
    23:00 +10°C° 0 mm 2 mps 744 mmHg 94%

    Tomorrow, 20 October, Saturday

    Time Temperature Precipitation Wind Pressure Humidity
    00:00 +10°C° 0 mm 2 mps 744 mmHg 95%
    01:00 +9°C° 0 mm 2 mps 745 mmHg 96%
    02:00 +9°C° 0 mm 3 mps 745 mmHg 97%
    03:00 +9°C° 0 mm 3 mps 745 mmHg 96%
    04:00 +8°C° 0 mm 3 mps 745 mmHg 95%
    05:00 +8°C° 0 mm 3 mps 745 mmHg 94%
    06:00 +8°C° 0 mm 3 mps 746 mmHg 90%
    07:00 +8°C° 0 mm 3 mps 746 mmHg 87%
    08:00 +8°C° 0 mm 3 mps 746 mmHg 83%
    09:00 +9°C° 0 mm 3 mps 746 mmHg 75%
    10:00 +10°C° 0 mm 3 mps 747 mmHg 66%
    11:00 +11°C° 0 mm 3 mps 747 mmHg 57%
    12:00 +11°C° 0 mm 3 mps 747 mmHg 55%
    13:00 +13°C° 0 mm 2 mps 747 mmHg 52%
    14:00 +13°C° 0 mm 2 mps 746 mmHg 49%
    15:00 +12°C° 0 mm 2 mps 746 mmHg 55%
    16:00 +9°C° 0 mm 2 mps 746 mmHg 60%
    17:00 +8°C° 0 mm 2 mps 746 mmHg 66%
    18:00 +9°C° 0 mm 1 mps 746 mmHg 69%
    19:00 +8°C° 0 mm 1 mps 746 mmHg 72%
    20:00 +7°C° 0 mm 1 mps 746 mmHg 75%
    21:00 +7°C° 0 mm 1 mps 746 mmHg 77%
    22:00 +6°C° 0 mm 1 mps 746 mmHg 79%
    23:00 +6°C° 0 mm 1 mps 746 mmHg 81%

    Day after tomorrow, 21 October, Sunday

    Time Temperature Precipitation Wind Pressure Humidity
    00:00 +6°C° 0 mm 1 mps 746 mmHg 82%
    01:00 +5°C° 0 mm 1 mps 746 mmHg 83%
    02:00 +5°C° 0 mm 1 mps 746 mmHg 85%
    03:00 +5°C° 0 mm 1 mps 745 mmHg 86%
    04:00 +5°C° 0 mm 1 mps 745 mmHg 87%
    05:00 +4°C° 0 mm 1 mps 745 mmHg 88%
    06:00 +5°C° 0 mm 1 mps 745 mmHg 85%
    07:00 +5°C° 0 mm 1 mps 745 mmHg 82%
    08:00 +6°C° 0 mm 1 mps 745 mmHg 79%
    09:00 +7°C° 0 mm 1 mps 745 mmHg 74%
    10:00 +8°C° 0 mm 2 mps 745 mmHg 68%
    11:00 +9°C° 0 mm 2 mps 745 mmHg 62%
    12:00 +9°C° 0 mm 2 mps 745 mmHg 60%
    13:00 +10°C° 0 mm 2 mps 745 mmHg 58%
    14:00 +10°C° 0 mm 3 mps 745 mmHg 57%
    15:00 +9°C° 0 mm 2 mps 746 mmHg 63%
    16:00 +7°C° 0 mm 2 mps 746 mmHg 68%
    17:00 +6°C° 0 mm 2 mps 746 mmHg 74%
    18:00 +6°C° 0 mm 2 mps 746 mmHg 77%
    19:00 +5°C° 0 mm 2 mps 747 mmHg 80%
    20:00 +5°C° 0 mm 2 mps 747 mmHg 82%
    21:00 +4°C° 0 mm 2 mps 747 mmHg 84%
    22:00 +4°C° 0 mm 2 mps 748 mmHg 86%
    23:00 +4°C° 0 mm 2 mps 748 mmHg 87%

    22 October, Monday

    Time Temperature Precipitation Wind Pressure Humidity
    00:00 +4°C° 0 mm 2 mps 748 mmHg 88%
    01:00 +3°C° 0 mm 2 mps 748 mmHg 89%
    02:00 +3°C° 0 mm 2 mps 748 mmHg 90%
    03:00 +3°C° 0 mm 2 mps 748 mmHg 91%
    04:00 +3°C° 0 mm 2 mps 748 mmHg 92%
    05:00 +3°C° 0 mm 2 mps 748 mmHg 92%
    06:00 +3°C° 0 mm 2 mps 748 mmHg 90%
    07:00 +5°C° 0 mm 1 mps 748 mmHg 87%
    08:00 +5°C° 0 mm 1 mps 748 mmHg 85%
    09:00 +7°C° 0 mm 1 mps 748 mmHg 77%
    10:00 +9°C° 0 mm 1 mps 748 mmHg 70%
    11:00 +9°C° 0 mm 0 mps 748 mmHg 62%
    12:00 +11°C° 0 mm 1 mps 748 mmHg 60%
    13:00 +11°C° 0 mm 1 mps 747 mmHg 57%
    14:00 +12°C° 0 mm 1 mps 747 mmHg 54%
    15:00 +11°C° 0 mm 1 mps 746 mmHg 59%
    16:00 +9°C° 0 mm 1 mps 746 mmHg 64%
    17:00 +8°C° 0 mm 1 mps 746 mmHg 69%
    18:00 +7°C° 0 mm 1 mps 746 mmHg 71%
    19:00 +7°C° 0 mm 1 mps 746 mmHg 72%
    20:00 +6°C° 0 mm 1 mps 746 mmHg 74%
    21:00 +6°C° 0 mm 1 mps 745 mmHg 76%
    22:00 +6°C° 0 mm 1 mps 745 mmHg 77%
    23:00 +5°C° 0 mm 1 mps 745 mmHg 79%

    23 October, Tuesday

    Time Temperature Precipitation Wind Pressure Humidity
    00:00 +5°C° 0 mm 1 mps 744 mmHg 80%
    01:00 +5°C° 0 mm 1 mps 744 mmHg 81%
    02:00 +4°C° 0 mm 1 mps 744 mmHg 83%
    03:00 +4°C° 0 mm 1 mps 743 mmHg 84%
    04:00 +4°C° 0 mm 1 mps 743 mmHg 85%
    05:00 +3°C° 0 mm 1 mps 743 mmHg 86%
    06:00 +4°C° 0 mm 1 mps 742 mmHg 84%
    07:00 +4°C° 0 mm 1 mps 742 mmHg 81%
    08:00 +5°C° 0 mm 1 mps 742 mmHg 79%
    09:00 +7°C° 0 mm 1 mps 742 mmHg 72%
    10:00 +7°C° 0 mm 2 mps 742 mmHg 65%
    11:00 +9°C° 0 mm 2 mps 741 mmHg 58%
    12:00 +9°C° 0 mm 2 mps 741 mmHg 56%
    13:00 +10°C° 0 mm 2 mps 740 mmHg 54%
    14:00 +10°C° 0 mm 2 mps 740 mmHg 52%
    15:00 +9°C° 0 mm 2 mps 740 mmHg 57%
    16:00 +8°C° 0 mm 1 mps 739 mmHg 62%
    17:00 +7°C° 0 mm 1 mps 739 mmHg 68%
    18:00 +7°C° 0 mm 1 mps 739 mmHg 69%
    19:00 +6°C° 0 mm 1 mps 739 mmHg 71%
    20:00 +6°C° 0 mm 1 mps 739 mmHg 73%
    21:00 +6°C° 0 mm 1 mps 738 mmHg 74%
    22:00 +5°C° 0 mm 1 mps 738 mmHg 75%
    23:00 +5°C° 0 mm 1 mps 738 mmHg 75%

    24 October, Wednesday

    Time Temperature Precipitation Wind Pressure Humidity
    00:00 +5°C° 0 mm 1 mps 738 mmHg 76%
    01:00 +5°C° 0 mm 1 mps 738 mmHg 77%
    02:00 +5°C° 0 mm 1 mps 737 mmHg 78%
    03:00 +5°C° 0 mm 1 mps 737 mmHg 79%
    04:00 +4°C° 0 mm 1 mps 737 mmHg 79%
    05:00 +4°C° 0 mm 1 mps 736 mmHg 79%
    06:00 +5°C° 0 mm 1 mps 736 mmHg 77%
    07:00 +5°C° 0 mm 1 mps 736 mmHg 76%
    08:00 +5°C° 0 mm 0 mps 736 mmHg 74%
    09:00 +7°C° 0 mm 1 mps 736 mmHg 69%
    10:00 +9°C° 0 mm 1 mps 736 mmHg 63%
    11:00 +10°C° 0 mm 1 mps 736 mmHg 58%
    12:00 +10°C° 0 mm 1 mps 735 mmHg 56%
    13:00 +10°C° 0 mm 2 mps 735 mmHg 54%
    14:00 +10°C° 0 mm 2 mps 735 mmHg 53%
    15:00 +9°C° 0 mm 2 mps 735 mmHg 58%
    16:00 +8°C° 0 mm 2 mps 735 mmHg 62%
    17:00 +7°C° 0 mm 1 mps 734 mmHg 67%
    18:00 +6°C° 0 mm 2 mps 735 mmHg 71%
    19:00 +5°C° 0 mm 2 mps 735 mmHg 74%
    20:00 +5°C° 0 mm 2 mps 735 mmHg 78%
    21:00 +5°C° 0 mm 2 mps 735 mmHg 82%
    22:00 +4°C° 0 mm 2 mps 735 mmHg 86%
    23:00 +4°C° 0 mm 2 mps 735 mmHg 90%
    Show more